Spokane, WA

9:22 AM PDT on September 24, 2017 (GMT -0700)
Spokane International

Weather History for KGEG - July, 2012

Change the Weather History Date:

Wednesday, July 25, 2012

  Actual Average Record
Temperature  
Mean Temperature 73 °F 72 °F  
Max Temperature 85 °F 86 °F 104 °F (1928)
Min Temperature 60 °F 58 °F 46 °F (1882)
Degree Days  
Heating Degree Days 0 0  
Month to date heating degree days 20 31  
Since 1 June heating degree days 195 167  
Since 1 July heating degree days 20 31  
Cooling Degree Days 8 7  
Month to date cooling degree days 205 136  
Year to date cooling degree days 235 199  
Since 1 June cooling degree days 225 185  
Growing Degree Days 22 (Base 50)    
Moisture  
Dew Point 51 °F    
Average Humidity 54    
Maximum Humidity 78    
Minimum Humidity 29    
Precipitation  
Precipitation 0.00 in 0.02 in 0.76 in (1990)
Month to date precipitation 0.84 0.55  
Year to date precipitation 13.83 9.43  
Snow  
Snow 0.00 in 0.00 in 0.00 in (2002)
Month to date snowfall 0.0 0.0  
Since 1 June snowfall 0.0 0.0  
Since 1 July snowfall 0.0 0.0  
Snow Depth 0.00 in    
Sea Level Pressure  
Sea Level Pressure 29.95 in    
Wind  
Wind Speed 3 mph (NE)    
Max Wind Speed 12 mph    
Max Gust Speed 16 mph    
Visibility 10 miles    
Events      
T = Trace of Precipitation, MM = Missing Value Source: NWS Daily Summary

Daily Weather History Graph

Daily Weather History Graph

Search for Another Location

Airport or City:

Trip Planner

Search our weather history database for the weather conditions in past years. The results will help you decide how hot, cold, wet, or windy it might be!

Date:

Astronomy

Jul. 25, 2012 Rise Set
Actual Time 5:19 AM PDT 8:32 PM PDT
Civil Twilight 4:42 AM PDT 9:09 PM PDT
Nautical Twilight 3:53 AM PDT 9:58 PM PDT
Astronomical Twilight 2:52 AM PDT 10:58 PM PDT
Moon 1:07 PM PDT (7/25) 11:22 PM PDT (7/25)
Length of Visible Light 16h 27m
Length of Day
15h 13m
Waxing Crescent, 43% of the Moon is Illuminated
Jul 25
Waxing Crescent
Jul 26
First Quarter
Aug 1
Full
Aug 9
Last Quarter
Aug 17
New

Hourly Weather History & Observations

Time (PDT) Temp. Dew Point Humidity Pressure Visibility Wind Dir Wind Speed Gust Speed Precip Events Conditions
12:53 AM 64.9 °F 51.1 °F 61% 29.96 in 10.0 mi Calm Calm - N/A   Clear
1:53 AM 60.1 °F 50.0 °F 69% 29.96 in 10.0 mi Calm Calm - N/A   Clear
2:53 AM 61.0 °F 50.0 °F 67% 29.96 in 10.0 mi Calm Calm - N/A   Clear
3:53 AM 62.1 °F 52.0 °F 70% 29.96 in 10.0 mi Calm Calm - N/A   Clear
4:53 AM 61.0 °F 53.1 °F 75% 29.97 in 10.0 mi ENE 5.8 mph - N/A   Clear
5:53 AM 61.0 °F 53.1 °F 75% 29.98 in 10.0 mi ENE 4.6 mph - N/A   Partly Cloudy
6:53 AM 62.1 °F 53.1 °F 72% 29.99 in 10.0 mi East 5.8 mph - N/A   Clear
7:53 AM 64.9 °F 53.1 °F 65% 30.01 in 10.0 mi ENE 5.8 mph - N/A   Clear
8:53 AM 66.9 °F 54.0 °F 63% 30.01 in 10.0 mi ENE 5.8 mph - N/A   Clear
9:53 AM 71.1 °F 52.0 °F 51% 30.00 in 10.0 mi ENE 5.8 mph - N/A   Partly Cloudy
10:53 AM 75.0 °F 51.1 °F 43% 30.00 in 10.0 mi Variable 5.8 mph - N/A   Partly Cloudy
11:53 AM 78.1 °F 51.1 °F 39% 29.98 in 10.0 mi North 3.5 mph - N/A   Partly Cloudy
12:53 PM 81.0 °F 51.1 °F 35% 29.98 in 10.0 mi NNW 9.2 mph - N/A   Partly Cloudy
1:53 PM 82.0 °F 50.0 °F 33% 29.97 in 10.0 mi NNW 4.6 mph - N/A   Partly Cloudy
2:53 PM 82.0 °F 50.0 °F 33% 29.95 in 10.0 mi Calm Calm - N/A   Partly Cloudy
3:53 PM 82.9 °F 48.9 °F 31% 29.94 in 10.0 mi Calm Calm - N/A   Partly Cloudy
4:53 PM 84.0 °F 48.9 °F 29% 29.92 in 10.0 mi Variable 4.6 mph - N/A   Scattered Clouds
5:53 PM 84.0 °F 48.0 °F 28% 29.91 in 10.0 mi Calm Calm - N/A   Scattered Clouds
6:53 PM 82.9 °F 48.9 °F 31% 29.90 in 10.0 mi Calm Calm - N/A   Scattered Clouds
7:53 PM 81.0 °F 50.0 °F 34% 29.91 in 10.0 mi NNE 6.9 mph - N/A   Scattered Clouds
8:53 PM 79.0 °F 50.0 °F 36% 29.91 in 10.0 mi ENE 3.5 mph - N/A   Scattered Clouds
9:53 PM 77.0 °F 48.9 °F 37% 29.91 in 10.0 mi East 3.5 mph - N/A   Scattered Clouds
10:53 PM 73.9 °F 51.1 °F 45% 29.91 in 10.0 mi Calm Calm - N/A   Scattered Clouds
11:53 PM 70.0 °F 50.0 °F 49% 29.91 in 10.0 mi NNE 3.5 mph - N/A   Clear